Angel Fire, NM

7:20 PM MDT on April 30, 2017 (GMT -0600)
Angel Fire

Weather History for KAXX - March, 2013

Change the Weather History Date:

Sunday, March 10, 2013

  Actual Average (KSKX) Record (KSKX)
Temperature  
Mean Temperature 20 °F -  
Max Temperature 32 °F 50 °F 68 °F (2014)
Min Temperature 7 °F 19 °F 10 °F (1998)
Degree Days  
Heating Degree Days 46    
Moisture  
Dew Point 12 °F    
Average Humidity 76    
Maximum Humidity 93    
Minimum Humidity 36    
Precipitation  
Precipitation 0.00 in - - ()
Sea Level Pressure  
Sea Level Pressure 30.04 in    
Wind  
Wind Speed 2 mph (WNW)    
Max Wind Speed 12 mph    
Max Gust Speed 10 mph    
Visibility 8 miles    
Events Snow    
Averages and records for this station are not official NWS values.
T = Trace of Precipitation, MM = Missing Value Source: NWS Daily Summary

Daily Weather History Graph

Daily Weather History Graph

Search for Another Location

Airport or City:

Trip Planner

Search our weather history database for the weather conditions in past years. The results will help you decide how hot, cold, wet, or windy it might be!

Date:

Astronomy

Mar. 10, 2013 Rise Set
Actual Time 7:18 AM MDT 7:04 PM MDT
Civil Twilight 6:53 AM MDT 7:30 PM MDT
Nautical Twilight 6:23 AM MDT 7:59 PM MDT
Astronomical Twilight 5:53 AM MDT 8:30 PM MDT
Moon 6:19 AM MDT (3/10) 6:15 PM MDT (3/10)
Length of Visible Light 12h 37m
Length of Day
11h 45m
Waning Crescent, 1% of the Moon is Illuminated
Mar 10
Waning Crescent
Mar 11
New
Mar 19
First Quarter
Mar 27
Full
Apr 2
Last Quarter

Hourly Weather History & Observations

Time (MDT) Temp. Windchill Dew Point Humidity Pressure Visibility Wind Dir Wind Speed Gust Speed Precip Events Conditions
12:15 AM 19.9 °F - 18.1 °F 93% 29.96 in 3.0 mi Calm Calm - N/A Snow Light Snow
12:35 AM 19.6 °F - 17.8 °F 93% 29.96 in 3.0 mi Calm Calm - N/A Snow Light Snow
12:55 AM 19.8 °F - 18.0 °F 93% 29.97 in 3.0 mi Calm Calm - N/A Snow Light Snow
1:15 AM 20.3 °F - 18.3 °F 92% 29.97 in 3.0 mi Calm Calm - N/A Snow Light Snow
1:35 AM 19.9 °F 13.4 °F 17.4 °F 90% 29.97 in 3.0 mi North 4.6 mph - N/A Snow Light Snow
1:55 AM 19.0 °F 11.1 °F 15.8 °F 87% 29.97 in 7.0 mi NNW 5.8 mph - N/A Snow Light Snow
3:15 AM 19.2 °F 11.3 °F 14.9 °F 83% 29.96 in 10.0 mi NNW 5.8 mph - N/A   Overcast
3:35 AM 19.0 °F - 14.9 °F 84% 29.95 in 7.0 mi Calm Calm - N/A Snow Light Snow
3:55 AM 18.5 °F 9.3 °F 13.8 °F 82% 29.94 in 10.0 mi North 6.9 mph - N/A   Overcast
4:15 AM 17.6 °F 6.4 °F 13.3 °F 83% 29.94 in 10.0 mi NNW 9.2 mph - N/A   Overcast
4:35 AM 17.6 °F - 12.9 °F 82% 29.95 in 10.0 mi Calm Calm - N/A   Overcast
4:55 AM 17.6 °F 6.4 °F 12.7 °F 81% 29.95 in 10.0 mi North 9.2 mph - N/A   Overcast
5:15 AM 16.2 °F - 11.8 °F 83% 29.95 in 10.0 mi Calm Calm - N/A   Overcast
5:35 AM 16.2 °F 5.5 °F 11.5 °F 82% 29.96 in 10.0 mi NNE 8.1 mph - N/A   Overcast
6:55 AM 12.2 °F - 9.1 °F 88% 29.99 in 2.0 mi Calm Calm - N/A Snow Light Snow
7:15 AM 10.6 °F 1.0 °F 7.3 °F 87% 30.01 in 2.5 mi NNE 5.8 mph - N/A Snow Light Snow
7:35 AM 10.0 °F - 7.3 °F 89% 30.01 in 3.0 mi Calm Calm - N/A Snow Light Snow
7:55 AM 10.8 °F - 7.5 °F 87% 30.02 in 1.8 mi Calm Calm - N/A Snow Light Snow
8:15 AM 10.4 °F - 7.3 °F 87% 30.03 in 4.0 mi Calm Calm - N/A Snow Light Snow
8:35 AM 8.2 °F 1.6 °F 4.5 °F 85% 30.03 in 3.0 mi West 3.5 mph - N/A Snow Light Snow
8:55 AM 7.7 °F - 4.6 °F 87% 30.03 in 3.0 mi Calm Calm - N/A Snow Light Snow
9:15 AM 9.1 °F - 4.3 °F 81% 30.03 in 7.0 mi Calm Calm - N/A Snow Light Snow
9:35 AM 10.2 °F - 5.9 °F 83% 30.03 in 10.0 mi Calm Calm - N/A   Clear
9:55 AM 14.0 °F - 9.0 °F 80% 30.05 in 10.0 mi Calm Calm - N/A   Scattered Clouds
10:35 AM 22.1 °F - 14.2 °F 72% 30.05 in 10.0 mi Calm Calm - N/A   Overcast
11:15 AM 24.4 °F - 14.2 °F 65% 30.06 in 10.0 mi Calm Calm - N/A   Overcast
11:35 AM 23.9 °F 19.5 °F 14.4 °F 67% 30.07 in 5.0 mi SSW 3.5 mph - N/A Snow Light Snow
12:15 PM 25.2 °F 17.3 °F 14.2 °F 63% 30.06 in 10.0 mi SW 6.9 mph 10.4 mph N/A   Mostly Cloudy
12:55 PM 26.1 °F 19.4 °F 14.2 °F 61% 30.05 in 10.0 mi South 5.8 mph - N/A   Mostly Cloudy
1:35 PM 27.5 °F 21.1 °F 14.2 °F 57% 30.05 in 10.0 mi ESE 5.8 mph - N/A   Mostly Cloudy
1:55 PM 27.1 °F 23.2 °F 12.7 °F 55% 30.05 in 10.0 mi SSW 3.5 mph - N/A   Scattered Clouds
2:35 PM 30.0 °F - 12.6 °F 48% 30.04 in 10.0 mi Calm Calm - N/A   Clear
3:15 PM 30.4 °F 25.6 °F 10.0 °F 43% 30.05 in 10.0 mi SSE 4.6 mph - N/A   Clear
3:55 PM 31.1 °F 21.9 °F 11.1 °F 43% 30.05 in 10.0 mi WSW 11.5 mph - N/A   Scattered Clouds
4:15 PM 31.8 °F 24.6 °F 10.4 °F 41% 30.05 in 10.0 mi WSW 8.1 mph - N/A   Clear
4:55 PM 32.5 °F 24.2 °F 8.4 °F 36% 30.04 in 10.0 mi North 10.4 mph - N/A   Clear
6:55 PM 30.0 °F - 12.4 °F 48% 30.08 in 10.0 mi Calm Calm - N/A   Clear
7:55 PM 25.3 °F - 14.9 °F 65% 30.11 in 10.0 mi Calm Calm - N/A   Clear
8:15 PM 24.3 °F 17.3 °F 14.9 °F 68% 30.12 in 10.0 mi West 5.8 mph - N/A   Clear
9:15 PM 22.1 °F 14.7 °F 13.6 °F 70% 30.14 in 10.0 mi West 5.8 mph - N/A   Clear
10:15 PM 18.7 °F 11.9 °F 13.1 °F 79% 30.16 in 10.0 mi SE 4.6 mph - N/A   Clear
10:35 PM 19.2 °F - 12.4 °F 75% 30.16 in 10.0 mi Calm Calm - N/A   Clear
10:55 PM 16.0 °F 10.4 °F 11.7 °F 83% 30.16 in 10.0 mi SW 3.5 mph - N/A   Clear
11:15 PM 14.5 °F - 11.1 °F 86% 30.15 in 7.0 mi Calm Calm - N/A   Clear
11:35 PM 15.4 °F - 11.7 °F 85% 30.14 in 10.0 mi Calm Calm - N/A   Clear
11:55 PM 13.5 °F - 9.9 °F 86% 30.14 in 10.0 mi Calm Calm - N/A   Clear
12:15 AM 13.1 °F - 10.2 °F 88% 30.15 in 10.0 mi Calm Calm - N/A   Clear
12:35 AM 14.0 °F - 10.2 °F 85% 30.16 in 10.0 mi Calm Calm - N/A   Clear